• Em Portugal
  • Lista de países
  • Para 7 dias
  • Temperatura da água
  • Mapas de satélite
  • Mapa do tempo
  • Widgets de tempo
  • user-avatar
    Iniciar Sessão

    Previsão horária em Abovyan

    Hoje, 21 Outubro, Domingo

    Tempo Temperatura Precipitação Vento Pressão Humidade
    00:00 +14°C° 0.2 mm 1 m/s 671 mmHg 65%
    01:00 +13°C° 0.1 mm 1 m/s 671 mmHg 67%
    02:00 +13°C° 0.1 mm 1 m/s 671 mmHg 68%
    03:00 +13°C° 0.1 mm 1 m/s 671 mmHg 70%
    04:00 +13°C° 0 mm 1 m/s 671 mmHg 70%
    05:00 +13°C° 0 mm 1 m/s 671 mmHg 71%
    06:00 +12°C° 0 mm 1 m/s 671 mmHg 72%
    07:00 +14°C° 0 mm 1 m/s 671 mmHg 65%
    08:00 +16°C° 0 mm 2 m/s 672 mmHg 59%
    09:00 +18°C° 0 mm 2 m/s 672 mmHg 51%
    10:00 +19°C° 0 mm 2 m/s 672 mmHg 48%
    11:00 +20°C° 0 mm 3 m/s 672 mmHg 44%
    12:00 +21°C° 0 mm 3 m/s 672 mmHg 41%
    13:00 +21°C° 0 mm 3 m/s 672 mmHg 41%
    14:00 +21°C° 0 mm 3 m/s 672 mmHg 41%
    15:00 +21°C° 0 mm 3 m/s 672 mmHg 41%
    16:00 +19°C° 0.1 mm 3 m/s 671 mmHg 45%
    17:00 +18°C° 0.1 mm 2 m/s 671 mmHg 49%
    18:00 +17°C° 0.1 mm 2 m/s 671 mmHg 53%
    19:00 +16°C° 0.2 mm 2 m/s 671 mmHg 55%
    20:00 +16°C° 0.2 mm 2 m/s 671 mmHg 56%
    21:00 +15°C° 0.2 mm 1 m/s 671 mmHg 58%
    22:00 +15°C° 0.1 mm 1 m/s 671 mmHg 59%
    23:00 +15°C° 0.1 mm 1 m/s 671 mmHg 60%

    Amanhã, 22 Outubro, Segunda-feira

    Tempo Temperatura Precipitação Vento Pressão Humidade
    00:00 +14°C° 0.1 mm 1 m/s 671 mmHg 62%
    01:00 +14°C° 0.1 mm 1 m/s 671 mmHg 62%
    02:00 +14°C° 0.1 mm 1 m/s 671 mmHg 62%
    03:00 +14°C° 0.1 mm 1 m/s 671 mmHg 62%
    04:00 +14°C° 0.5 mm 1 m/s 671 mmHg 64%
    05:00 +14°C° 0.5 mm 1 m/s 671 mmHg 66%
    06:00 +14°C° 0.5 mm 2 m/s 671 mmHg 68%
    07:00 +14°C° 0.2 mm 2 m/s 672 mmHg 65%
    08:00 +15°C° 0.2 mm 2 m/s 672 mmHg 62%
    09:00 +16°C° 0.2 mm 2 m/s 673 mmHg 59%
    10:00 +17°C° 0 mm 3 m/s 673 mmHg 55%
    11:00 +19°C° 0 mm 3 m/s 673 mmHg 52%
    12:00 +20°C° 0 mm 3 m/s 673 mmHg 48%
    13:00 +20°C° 0 mm 3 m/s 673 mmHg 47%
    14:00 +20°C° 0 mm 3 m/s 672 mmHg 46%
    15:00 +20°C° 0 mm 3 m/s 672 mmHg 45%
    16:00 +19°C° 0.1 mm 2 m/s 672 mmHg 50%
    17:00 +17°C° 0.1 mm 2 m/s 672 mmHg 55%
    18:00 +16°C° 0.1 mm 1 m/s 672 mmHg 59%
    19:00 +15°C° 0.1 mm 1 m/s 672 mmHg 60%
    20:00 +15°C° 0.1 mm 1 m/s 672 mmHg 61%
    21:00 +15°C° 0.1 mm 1 m/s 672 mmHg 62%
    22:00 +14°C° 0.1 mm 1 m/s 672 mmHg 63%
    23:00 +14°C° 0.1 mm 1 m/s 672 mmHg 63%

    Depois de amanhã, 23 Outubro, Terça-feira

    Tempo Temperatura Precipitação Vento Pressão Humidade
    00:00 +14°C° 0.1 mm 1 m/s 672 mmHg 64%
    01:00 +13°C° 0.1 mm 1 m/s 672 mmHg 64%
    02:00 +13°C° 0.1 mm 1 m/s 672 mmHg 65%
    03:00 +13°C° 0.1 mm 1 m/s 672 mmHg 66%
    04:00 +13°C° 0 mm 1 m/s 672 mmHg 66%
    05:00 +13°C° 0 mm 1 m/s 672 mmHg 67%
    06:00 +12°C° 0 mm 1 m/s 671 mmHg 68%
    07:00 +14°C° 0 mm 2 m/s 672 mmHg 63%
    08:00 +16°C° 0 mm 2 m/s 672 mmHg 57%
    09:00 +17°C° 0 mm 2 m/s 673 mmHg 52%
    10:00 +18°C° 0 mm 2 m/s 673 mmHg 49%
    11:00 +19°C° 0 mm 3 m/s 672 mmHg 47%
    12:00 +20°C° 0 mm 3 m/s 672 mmHg 44%
    13:00 +20°C° 0.1 mm 3 m/s 672 mmHg 43%
    14:00 +20°C° 0.1 mm 3 m/s 671 mmHg 43%
    15:00 +20°C° 0.1 mm 4 m/s 671 mmHg 42%
    16:00 +19°C° 0.1 mm 3 m/s 671 mmHg 47%
    17:00 +17°C° 0.1 mm 2 m/s 671 mmHg 52%
    18:00 +16°C° 0.1 mm 2 m/s 670 mmHg 58%
    19:00 +15°C° 0.1 mm 2 m/s 671 mmHg 58%
    20:00 +15°C° 0.1 mm 2 m/s 671 mmHg 58%
    21:00 +15°C° 0.1 mm 2 m/s 671 mmHg 58%
    22:00 +15°C° 0 mm 2 m/s 671 mmHg 59%
    23:00 +14°C° 0 mm 2 m/s 671 mmHg 60%

    24 Outubro, Quarta-feira

    Tempo Temperatura Precipitação Vento Pressão Humidade
    00:00 +14°C° 0 mm 2 m/s 671 mmHg 61%
    01:00 +14°C° 0.2 mm 2 m/s 670 mmHg 62%
    02:00 +13°C° 0.2 mm 1 m/s 670 mmHg 63%
    03:00 +13°C° 0.2 mm 1 m/s 670 mmHg 65%
    04:00 +13°C° 0.6 mm 2 m/s 670 mmHg 67%
    05:00 +13°C° 0.6 mm 2 m/s 670 mmHg 70%
    06:00 +13°C° 0.6 mm 2 m/s 669 mmHg 72%
    07:00 +13°C° 0.2 mm 3 m/s 670 mmHg 69%
    08:00 +14°C° 0.2 mm 3 m/s 670 mmHg 66%
    09:00 +16°C° 0.2 mm 3 m/s 670 mmHg 63%
    10:00 +17°C° 0.2 mm 4 m/s 670 mmHg 60%
    11:00 +18°C° 0.2 mm 4 m/s 669 mmHg 57%
    12:00 +19°C° 0.2 mm 4 m/s 669 mmHg 53%
    13:00 +19°C° 0.4 mm 4 m/s 668 mmHg 54%
    14:00 +18°C° 0.4 mm 4 m/s 668 mmHg 55%
    15:00 +18°C° 0.4 mm 4 m/s 667 mmHg 56%
    16:00 +17°C° 0.6 mm 4 m/s 667 mmHg 60%
    17:00 +17°C° 0.6 mm 3 m/s 667 mmHg 63%
    18:00 +16°C° 0.6 mm 3 m/s 667 mmHg 67%
    19:00 +16°C° 0.6 mm 3 m/s 667 mmHg 69%
    20:00 +14°C° 0.6 mm 3 m/s 667 mmHg 71%
    21:00 +14°C° 0.6 mm 3 m/s 667 mmHg 72%
    22:00 +14°C° 0.3 mm 3 m/s 667 mmHg 73%
    23:00 +13°C° 0.3 mm 3 m/s 667 mmHg 74%

    25 Outubro, Quinta-feira

    Tempo Temperatura Precipitação Vento Pressão Humidade
    00:00 +13°C° 0.3 mm 3 m/s 666 mmHg 75%
    01:00 +13°C° 0.1 mm 3 m/s 666 mmHg 75%
    02:00 +13°C° 0.1 mm 3 m/s 666 mmHg 75%
    03:00 +12°C° 0.1 mm 3 m/s 666 mmHg 75%
    04:00 +12°C° 0.1 mm 3 m/s 665 mmHg 75%
    05:00 +12°C° 0.1 mm 3 m/s 665 mmHg 75%
    06:00 +12°C° 0.1 mm 3 m/s 665 mmHg 75%
    07:00 +13°C° 0.1 mm 4 m/s 665 mmHg 70%
    08:00 +15°C° 0.1 mm 4 m/s 665 mmHg 65%
    09:00 +16°C° 0.1 mm 5 m/s 665 mmHg 59%
    10:00 +17°C° 0.2 mm 6 m/s 664 mmHg 56%
    11:00 +18°C° 0.2 mm 7 m/s 664 mmHg 53%
    12:00 +20°C° 0.2 mm 7 m/s 663 mmHg 50%
    13:00 +18°C° 1 mm 7 m/s 663 mmHg 53%
    14:00 +19°C° 1 mm 6 m/s 662 mmHg 56%
    15:00 +17°C° 1 mm 6 m/s 661 mmHg 59%
    16:00 +16°C° 2.6 mm 5 m/s 661 mmHg 66%
    17:00 +15°C° 2.6 mm 5 m/s 661 mmHg 73%
    18:00 +14°C° 2.6 mm 4 m/s 661 mmHg 81%
    19:00 +14°C° 0.4 mm 4 m/s 661 mmHg 81%
    20:00 +14°C° 0.4 mm 4 m/s 661 mmHg 81%
    21:00 +13°C° 0.4 mm 4 m/s 661 mmHg 81%
    22:00 +13°C° 0.6 mm 4 m/s 661 mmHg 80%
    23:00 +13°C° 0.6 mm 5 m/s 661 mmHg 79%

    26 Outubro, Sexta-feira

    Tempo Temperatura Precipitação Vento Pressão Humidade
    00:00 +13°C° 0.6 mm 5 m/s 662 mmHg 78%
    01:00 +13°C° 1.1 mm 5 m/s 662 mmHg 78%
    02:00 +13°C° 1.1 mm 5 m/s 662 mmHg 78%
    03:00 +13°C° 1.1 mm 5 m/s 662 mmHg 78%
    04:00 +13°C° 0.4 mm 5 m/s 662 mmHg 78%
    05:00 +13°C° 0.4 mm 5 m/s 663 mmHg 78%
    06:00 +13°C° 0.4 mm 5 m/s 663 mmHg 78%
    07:00 +14°C° 0.5 mm 5 m/s 663 mmHg 74%
    08:00 +14°C° 0.5 mm 5 m/s 664 mmHg 71%
    09:00 +15°C° 0.5 mm 5 m/s 664 mmHg 67%
    10:00 +14°C° 1.1 mm 5 m/s 664 mmHg 69%
    11:00 +14°C° 1.1 mm 4 m/s 664 mmHg 70%
    12:00 +13°C° 1.1 mm 4 m/s 664 mmHg 72%
    13:00 +13°C° 0.8 mm 3 m/s 664 mmHg 69%
    14:00 +13°C° 0.8 mm 3 m/s 664 mmHg 65%
    15:00 +13°C° 0.8 mm 3 m/s 664 mmHg 62%
    16:00 +11°C° 1 mm 4 m/s 665 mmHg 65%
    17:00 +10°C° 1 mm 4 m/s 665 mmHg 68%
    18:00 +8°C° 1 mm 4 m/s 666 mmHg 70%
    19:00 +7°C° 0.3 mm 4 m/s 667 mmHg 69%
    20:00 +7°C° 0.3 mm 4 m/s 668 mmHg 68%
    21:00 +7°C° 0.3 mm 4 m/s 669 mmHg 66%
    22:00 +7°C° 0 mm 3 m/s 670 mmHg 68%
    23:00 +5°C° 0 mm 3 m/s 671 mmHg 69%
    Mostrar mais